Tracking 19644 objects as of 25-Apr-2019
HD Live streaming from Space Station
objects crossing your sky now

COSMOS 1823 DEB

Track COSMOS 1823 DEB now!
10-day predictions


NORAD ID: 39823
Int'l Code: 1987-020EX
Perigee: 1,453.3 km
Apogee: 1,539.5 km
Inclination: 73.7 °
Period: 115.7 minutes
Semi major axis: 7867 km
RCS: 0.0104 m2 (small)
Launch date: February 20, 1987
Source: Commonwealth of Independent States (former USSR) (CIS)
Launch site: PLESETSK MISSILE AND SPACE COMPLEX (PKMTR)

Note: This is SATELLITE DEBRIS
aabbcc
Your satellite tracking list
Your tracking list is empty




NASA's NSSDC Master Catalog

Two Line Element Set (TLE):
1 39823U 87020EX  19112.49636755 +.00000125 +00000-0 +10082-2 0  9992
2 39823 073.7124 040.4007 0054743 217.3346 263.8800 12.44098662702148
Source of the keplerian elements: AFSPC